Temp
-8 -8 -7 -7 -6 -6 -6 -7 -6 -7 -6 -6 -6 -6 -6 -6 -5 -6 -5 -5 -5 -4 -5 -5 -5 -5 -5 -5 -5 -5 -5 -5 -5 -5 -5 -5 -5 -5 -5 -5 -5 -5 -5 -5 -5 -5 -5 -5 -5
-8 -8 -7 -7 -6 -8 -8 -8 -7 -7 -6 -7 -6 -6 -6 -6 -6 -6 -5 -5 -5 -5 -5 -5 -5 -6 -6 -5 -5 -5 -6 -5 -5 -5 -5 -5 -5 -5 -5 -5 -6 -6 -5 -5 -5 -5 -5 -5 -5
-8 -8 -8 -7 -7 -8 -8 -8 -8 -7 -7 -6 -6 -6 -6 -6 -6 -6 -6 -5 -5 -6 -6 -6 -5 -6 -6 -6 -6 -6 -6 -6 -6 -5 -5 -5 -5 -5 -6 -6 -6 -6 -6 -5 -5 -5 -5 -5 -5
-8 -8 -8 -7 -7 -9 -8 -8 -7 -7 -6 -6 -7 -7 -7 -6 -6 -6 -6 -5 -5 -6 -6 -6 -6 -6 -6 -6 -6 -6 -6 -6 -6 -6 -6 -6 -6 -6 -6 -6 -6 -6 -5 -5 -5 -5 -5 -5 -5
-8 -8 -8 -7 -7 -9 -8 -8 -7 -7 -7 -7 -7 -6 -7 -7 -7 -6 -6 -6 -7 -8 -7 -7 -7 -6 -6 -6 -6 -6 -6 -6 -6 -6 -7 -6 -7 -7 -6 -6 -6 -5 -5 -5 -5 -5 -5 -5 -5
-8 -8 -8 -8 -8 -8 -8 -8 -7 -7 -7 -7 -7 -8 -7 -7 -7 -7 -7 -7 -7 -7 -7 -6 -6 -7 -6 -7 -7 -7 -7 -7 -7 -7 -7 -7 -7 -7 -6 -6 -6 -6 -6 -5 -6 -6 -5 -5 -5
-8 -8 -8 -9 -8 -8 -7 -8 -7 -8 -8 -9 -8 -8 -7 -8 -8 -7 -7 -7 -7 -7 -7 -7 -7 -7 -7 -7 -7 -7 -7 -7 -7 -7 -7 -7 -7 -7 -7 -7 -6 -6 -6 -6 -6 -6 -6 -6 -6
-8 -8 -8 -9 -9 -8 -8 -8 -8 -8 -8 -9 -8 -8 -8 -8 -8 -8 -8 -8 -7 -7 -7 -7 -7 -7 -7 -7 -7 -7 -7 -8 -8 -7 -7 -7 -7 -7 -7 -7 -7 -7 -6 -6 -6 -6 -6 -6 -6
-8 -7 -7 -8 -9 -8 -8 -8 -8 -8 -8 -9 -8 -8 -8 -7 -8 -8 -8 -8 -7 -7 -7 -7 -7 -8 -8 -8 -8 -8 -8 -8 -8 -8 -7 -7 -7 -7 -7 -7 -7 -7 -7 -7 -6 -6 -6 -6 -6
-7 -8 -8 -8 -9 -8 -8 -8 -7 -9 -8 -8 -8 -8 -8 -8 -8 -8 -8 -7 -7 -7 -7 -8 -8 -8 -8 -8 -8 -8 -8 -8 -8 -8 -7 -7 -7 -7 -7 -7 -7 -7 -7 -7 -7 -6 -6 -6 -6
-8 -7 -8 -10 -9 -9 -8 -7 -7 -8 -8 -8 -9 -8 -7 -8 -8 -8 -8 -7 -7 -7 -7 -8 -8 -8 -8 -8 -9 -9 -8 -9 -8 -8 -7 -7 -7 -7 -7 -7 -8 -7 -7 -7 -7 -6 -6 -6 -6
-7 -7 -8 -7 -7 -7 -8 -8 -8 -8 -8 -9 -8 -8 -8 -8 -8 -8 -8 -8 -6 -7 -8 -8 -8 -9 -8 -8 -8 -8 -8 -8 -8 -8 -8 -8 -7 -7 -7 -7 -8 -7 -7 -7 -7 -7 -6 -6 -7
-7 -8 -7 -7 -7 -7 -8 -7 -7 -7 -8 -9 -9 -8 -7 -8 -8 -9 -8 -6 -6 -7 -8 -8 -8 -9 -9 -8 -8 -8 -8 -9 -8 -8 -8 -8 -7 -8 -7 -7 -7 -7 -7 -7 -7 -7 -7 -7 -7
-8 -8 -8 -8 -7 -7 -7 -7 -7 -7 -8 -9 -7 -9 -10 -8 -8 -9 -9 -8 -7 -7 -8 -8 -8 -9 -8 -9 -8 -8 -8 -8 -8 -8 -8 -8 -8 -8 -7 -7 -8 -7 -7 -7 -7 -7 -7 -7 -7
-8 -7 -8 -7 -8 -8 -8 -7 -7 -7 -7 -8 -7 -7 -9 -8 -8 -8 -8 -9 -8 -7 -8 -8 -8 -9 -9 -9 -9 -9 -9 -9 -8 -8 -8 -8 -8 -8 -7 -7 -7 -7 -7 -7 -7 -7 -7 -7 -7
-7 -7 -7 -8 -8 -8 -8 -7 -8 -8 -8 -8 -8 -7 -8 -10 -8 -8 -8 -7 -7 -7 -8 -8 -9 -9 -9 -9 -8 -8 -8 -8 -8 -8 -8 -8 -9 -8 -8 -7 -7 -7 -7 -7 -8 -7 -7 -7 -7
-7 -7 -8 -8 -8 -9 -7 -7 -8 -8 -8 -8 -8 -8 -9 -10 -10 -8 -7 -8 -10 -9 -8 -9 -9 -9 -9 -9 -9 -9 -9 -9 -9 -8 -8 -8 -8 -8 -7 -7 -7 -7 -7 -7 -7 -8 -7 -7 -8
-8 -9 -10 -10 -9 -10 -9 -8 -8 -9 -9 -10 -9 -8 -9 -12 -9 -8 -7 -8 -10 -10 -9 -9 -9 -9 -9 -9 -9 -9 -9 -9 -9 -9 -8 -8 -9 -8 -8 -8 -7 -7 -8 -8 -8 -8 -8 -8 -8
-8 -9 -9 -9 -10 -10 -11 -9 -9 -9 -10 -11 -11 -9 -9 -12 -9 -8 -8 -8 -9 -8 -9 -9 -9 -9 -9 -9 -9 -9 -9 -9 -9 -9 -9 -8 -8 -8 -8 -8 -7 -8 -8 -8 -8 -8 -8 -8 -8
-9 -9 -8 -8 -9 -10 -11 -10 -9 -11 -11 -10 -11 -10 -9 -9 -9 -8 -9 -9 -9 -9 -9 -9 -9 -9 -10 -9 -9 -9 -10 -9 -9 -10 -9 -9 -8 -8 -8 -8 -8 -8 -8 -7 -8 -8 -8 -8 -8
-9 -9 -9 -9 -10 -11 -11 -10 -11 -10 -11 -11 -9 -9 -10 -10 -9 -9 -10 -10 -10 -10 -10 -10 -10 -10 -10 -10 -10 -10 -10 -10 -10 -10 -9 -9 -9 -9 -8 -8 -8 -8 -8 -8 -8 -8 -8 -8 -8
-10 -11 -12 -10 -10 -11 -12 -11 -11 -11 -11 -10 -10 -10 -10 -10 -9 -10 -10 -10 -10 -10 -10 -11 -11 -11 -11 -10 -10 -10 -11 -11 -11 -11 -9 -9 -9 -9 -9 -8 -8 -8 -8 -8 -8 -8 -8 -8 -9
-12 -13 -12 -13 -13 -13 -10 -12 -11 -11 -12 -12 -11 -11 -10 -10 -10 -10 -10 -10 -10 -10 -11 -11 -11 -11 -11 -12 -11 -11 -11 -11 -12 -11 -11 -9 -8 -9 -8 -8 -8 -8 -8 -9 -9 -9 -9 -9 -9
-13 -13 -13 -13 -13 -13 -11 -12 -11 -11 -11 -11 -11 -10 -10 -10 -10 -10 -10 -11 -10 -10 -11 -11 -12 -12 -12 -12 -12 -12 -12 -12 -12 -12 -12 -11 -9 -9 -9 -9 -9 -9 -9 -9 -9 -9 -9 -9 -9
-14 -14 -13 -13 -13 -13 -12 -12 -11 -12 -12 -12 -12 -11 -12 -11 -11 -11 -10 -11 -11 -11 -11 -12 -12 -12 -12 -12 -13 -13 -13 -13 -13 -13 -12 -11 -10 -9 -8 -8 -9 -12 -10 -10 -10 -9 -9 -9 -9
-13 -13 -13 -12 -12 -12 -12 -12 -12 -12 -11 -12 -11 -11 -11 -11 -11 -11 -12 -12 -12 -12 -12 -12 -12 -12 -12 -12 -12 -12 -12 -12 -13 -13 -12 -12 -11 -10 -9 -5 -4 -10 -12 -12 -12 -10 -10 -9 -9
-13 -13 -13 -12 -13 -13 -12 -12 -12 -12 -12 -12 -11 -12 -12 -11 -12 -12 -13 -13 -12 -12 -12 -12 -12 -12 -12 -12 -12 -12 -12 -12 -12 -12 -12 -12 -11 -10 -11 -12 -11 -10 -11 -11 -11 -11 -11 -10 -9
-14 -14 -14 -14 -13 -13 -14 -12 -13 -12 -12 -12 -12 -12 -12 -12 -12 -13 -12 -13 -13 -13 -12 -13 -13 -13 -13 -13 -13 -12 -12 -12 -12 -12 -12 -11 -11 -11 -11 -11 -10 -10 -11 -10 -12 -10 -12 -12 -11
-15 -15 -15 -14 -14 -14 -14 -14 -13 -13 -13 -12 -12 -12 -12 -13 -13 -12 -12 -13 -14 -13 -13 -13 -13 -13 -13 -13 -13 -13 -12 -12 -12 -12 -12 -11 -11 -11 -11 -11 -11 -11 -11 -10 -11 -11 -12 -12 -12
-16 -15 -16 -15 -15 -14 -14 -13 -14 -14 -13 -13 -13 -13 -13 -13 -12 -13 -13 -14 -15 -14 -14 -13 -13 -13 -13 -13 -13 -13 -13 -13 -13 -12 -12 -12 -12 -12 -12 -11 -11 -11 -11 -11 -12 -11 -12 -12 -12
Height
5912 5914 5917 5921 5926 5927 5927 5933 5935 5929 5926 5927 5927 5926 5925 5924 5923 5923 5921 5922 5924 5925 5926 5927 5929 5930 5931 5933 5933 5933 5934 5933 5933 5933 5932 5932 5931 5931 5931 5930 5930 5929 5929 5929 5929 5929 5927 5927 5926
5911 5914 5917 5920 5923 5919 5921 5926 5932 5924 5925 5927 5926 5924 5924 5923 5924 5923 5921 5920 5922 5923 5925 5927 5928 5930 5931 5932 5932 5933 5933 5933 5933 5933 5933 5933 5932 5932 5931 5931 5931 5931 5930 5929 5929 5928 5927 5926 5925
5911 5913 5917 5919 5920 5921 5927 5927 5928 5916 5925 5928 5925 5925 5924 5923 5922 5922 5921 5919 5918 5920 5922 5925 5927 5929 5930 5931 5932 5933 5933 5933 5933 5933 5933 5933 5932 5932 5932 5932 5931 5930 5930 5929 5928 5927 5926 5925 5924
5910 5913 5916 5919 5919 5925 5926 5929 5927 5927 5928 5926 5923 5924 5924 5923 5921 5921 5919 5915 5914 5917 5920 5923 5925 5928 5929 5930 5931 5933 5933 5933 5933 5933 5933 5932 5932 5932 5931 5931 5930 5929 5928 5928 5927 5925 5925 5924 5923
5909 5911 5914 5918 5920 5925 5923 5927 5925 5927 5923 5912 5922 5923 5923 5923 5922 5920 5919 5916 5915 5918 5920 5922 5925 5927 5928 5929 5930 5931 5932 5932 5933 5932 5932 5931 5931 5930 5929 5928 5928 5927 5926 5925 5925 5923 5923 5922 5921
5907 5910 5913 5917 5922 5928 5930 5924 5923 5925 5926 5921 5922 5920 5922 5922 5922 5921 5920 5920 5920 5921 5922 5922 5924 5926 5927 5928 5928 5930 5931 5931 5931 5931 5930 5930 5929 5928 5927 5926 5925 5924 5924 5923 5923 5922 5921 5920 5919
5906 5908 5911 5915 5921 5927 5929 5920 5923 5922 5924 5927 5921 5916 5917 5918 5919 5920 5920 5920 5920 5922 5922 5922 5923 5924 5925 5926 5927 5928 5928 5929 5929 5929 5929 5928 5927 5926 5925 5924 5923 5922 5921 5921 5920 5919 5918 5918 5918
5904 5905 5908 5910 5918 5924 5923 5917 5920 5920 5922 5923 5917 5906 5912 5917 5917 5918 5917 5917 5918 5920 5920 5921 5921 5922 5923 5923 5925 5925 5926 5926 5927 5927 5927 5927 5926 5925 5924 5922 5921 5920 5919 5919 5918 5917 5917 5916 5914
5902 5904 5907 5910 5917 5923 5922 5915 5918 5916 5919 5917 5913 5903 5913 5917 5912 5913 5913 5914 5914 5916 5917 5918 5919 5919 5920 5920 5920 5921 5922 5924 5925 5925 5925 5925 5924 5923 5921 5920 5919 5917 5917 5917 5916 5916 5915 5914 5911
5900 5902 5905 5909 5916 5916 5919 5911 5914 5912 5915 5916 5913 5899 5906 5906 5910 5910 5909 5909 5909 5910 5912 5914 5915 5915 5916 5915 5915 5918 5919 5921 5921 5921 5922 5922 5921 5920 5919 5918 5916 5915 5915 5915 5914 5914 5914 5912 5909
5898 5901 5902 5905 5905 5908 5907 5907 5909 5909 5912 5914 5911 5901 5902 5905 5907 5906 5904 5906 5905 5905 5907 5909 5912 5912 5912 5913 5913 5915 5916 5917 5917 5918 5918 5918 5918 5918 5917 5916 5915 5914 5913 5912 5912 5912 5912 5912 5908
5896 5898 5899 5901 5901 5903 5904 5904 5905 5905 5909 5909 5902 5899 5895 5900 5903 5902 5901 5902 5899 5901 5902 5905 5907 5908 5909 5911 5910 5912 5913 5912 5913 5913 5913 5913 5914 5913 5914 5914 5913 5910 5909 5910 5910 5911 5910 5911 5908
5894 5895 5896 5897 5898 5899 5900 5900 5901 5901 5904 5905 5897 5875 5871 5896 5898 5900 5900 5900 5869 5894 5899 5900 5902 5903 5904 5905 5906 5906 5909 5907 5909 5909 5908 5908 5909 5909 5909 5909 5909 5909 5910 5907 5908 5909 5909 5909 5907
5891 5892 5893 5894 5895 5895 5896 5897 5896 5898 5898 5899 5898 5895 5893 5892 5895 5896 5895 5892 5893 5893 5895 5896 5898 5899 5900 5900 5902 5902 5903 5904 5904 5904 5904 5904 5905 5905 5905 5905 5905 5905 5904 5904 5906 5906 5905 5906 5905
5888 5888 5888 5890 5891 5891 5892 5893 5894 5894 5894 5895 5890 5894 5895 5888 5888 5889 5890 5889 5888 5890 5892 5892 5894 5896 5896 5897 5898 5898 5898 5899 5899 5899 5900 5900 5901 5901 5901 5901 5902 5902 5903 5903 5903 5903 5903 5902 5902
5884 5884 5884 5886 5885 5885 5885 5888 5890 5890 5890 5890 5887 5886 5888 5885 5883 5883 5884 5889 5884 5884 5886 5888 5889 5891 5891 5892 5892 5893 5893 5893 5893 5895 5895 5896 5895 5895 5896 5897 5898 5898 5899 5900 5900 5900 5899 5898 5898
5880 5880 5879 5880 5881 5880 5878 5881 5883 5883 5884 5885 5883 5883 5883 5881 5879 5878 5882 5878 5878 5882 5882 5882 5882 5884 5886 5886 5887 5886 5887 5888 5888 5888 5890 5891 5890 5890 5892 5892 5893 5894 5893 5895 5896 5896 5896 5895 5893
5875 5875 5876 5875 5878 5874 5873 5874 5876 5877 5878 5876 5878 5877 5879 5879 5871 5872 5879 5875 5868 5878 5876 5876 5878 5878 5880 5880 5881 5881 5880 5882 5883 5882 5883 5886 5886 5885 5886 5887 5887 5889 5889 5890 5891 5891 5891 5891 5890
5868 5869 5867 5869 5872 5874 5869 5865 5868 5871 5872 5871 5867 5871 5873 5870 5863 5867 5870 5872 5869 5868 5869 5871 5873 5873 5873 5874 5875 5874 5875 5875 5876 5877 5877 5878 5879 5880 5880 5880 5882 5883 5883 5884 5885 5886 5886 5886 5886
5859 5858 5859 5861 5862 5861 5861 5859 5860 5864 5863 5861 5861 5860 5862 5859 5858 5861 5865 5862 5861 5861 5861 5864 5865 5866 5866 5866 5868 5868 5868 5868 5869 5870 5870 5871 5873 5874 5874 5874 5876 5877 5876 5878 5879 5880 5881 5881 5880
5851 5849 5850 5851 5852 5852 5853 5850 5851 5856 5851 5850 5851 5853 5853 5853 5850 5855 5856 5854 5855 5855 5855 5856 5858 5859 5860 5859 5860 5861 5861 5862 5862 5863 5863 5865 5866 5867 5868 5869 5868 5871 5870 5871 5873 5873 5874 5874 5874
5842 5843 5840 5841 5842 5841 5847 5842 5843 5847 5841 5840 5844 5841 5841 5841 5843 5847 5847 5847 5847 5848 5849 5850 5851 5852 5851 5854 5856 5855 5855 5855 5855 5854 5855 5857 5859 5860 5862 5862 5862 5862 5863 5863 5865 5866 5866 5867 5867
5833 5833 5833 5833 5834 5834 5834 5835 5838 5840 5834 5831 5828 5832 5834 5835 5833 5835 5837 5837 5839 5840 5842 5843 5843 5844 5845 5846 5846 5847 5847 5848 5849 5848 5847 5847 5851 5854 5854 5854 5854 5853 5853 5856 5854 5857 5856 5859 5859
5826 5824 5824 5822 5824 5822 5824 5828 5828 5833 5833 5824 5822 5817 5817 5824 5823 5824 5827 5828 5830 5832 5834 5834 5835 5836 5837 5838 5839 5840 5841 5841 5842 5842 5842 5842 5842 5845 5846 5843 5840 5844 5847 5847 5848 5848 5850 5850 5850
5819 5819 5815 5814 5813 5810 5818 5820 5820 5818 5819 5807 5812 5806 5804 5812 5813 5814 5816 5818 5820 5821 5823 5825 5826 5827 5829 5830 5831 5831 5833 5833 5834 5834 5834 5834 5836 5834 5831 5815 5825 5829 5834 5838 5839 5839 5841 5841 5841
5808 5808 5802 5798 5798 5804 5812 5809 5807 5801 5811 5801 5798 5798 5799 5797 5798 5802 5804 5807 5810 5812 5812 5814 5815 5817 5818 5819 5821 5822 5822 5822 5824 5825 5827 5828 5827 5823 5816 5766 5768 5789 5802 5815 5825 5827 5829 5832 5833
5801 5799 5795 5788 5787 5788 5792 5799 5791 5796 5800 5794 5788 5780 5785 5784 5786 5791 5795 5796 5799 5801 5803 5804 5804 5805 5808 5809 5809 5810 5811 5812 5813 5814 5818 5819 5818 5815 5804 5803 5795 5800 5804 5804 5809 5817 5820 5823 5825
5787 5786 5789 5788 5780 5774 5779 5788 5784 5784 5780 5781 5783 5774 5772 5775 5778 5777 5782 5786 5787 5788 5791 5795 5795 5794 5795 5797 5798 5799 5799 5800 5800 5801 5806 5808 5808 5806 5799 5795 5798 5803 5793 5786 5802 5807 5807 5812 5815
5778 5773 5771 5774 5772 5766 5769 5772 5771 5771 5774 5752 5766 5765 5764 5763 5759 5763 5768 5774 5776 5776 5778 5780 5782 5782 5782 5785 5786 5785 5785 5786 5787 5788 5792 5796 5797 5795 5790 5783 5791 5790 5764 5754 5777 5791 5792 5801 5806
5760 5761 5761 5760 5760 5761 5757 5755 5761 5764 5759 5758 5755 5749 5746 5743 5746 5752 5756 5760 5763 5763 5766 5767 5768 5768 5768 5769 5770 5770 5770 5771 5773 5774 5777 5783 5784 5784 5780 5776 5778 5775 5775 5770 5775 5775 5782 5790 5792
Wind_Speed
12 12 11 10 14 14 11 2 14 15 16 7 4 3 6 6 7 8 10 6 10 17 14 14 15 14 14 13 11 9 8 6 4 2 2 2 2 2 2 2 3 3 3 4 5 7 7 7 8
12 11 11 11 14 10 11 13 10 26 4 7 6 5 5 8 5 8 12 13 15 18 19 18 17 16 15 14 13 11 10 8 7 6 7 6 7 7 7 6 6 7 7 7 9 9 10 11 11
13 12 12 12 16 4 12 13 6 15 13 11 8 5 7 11 11 10 9 12 17 20 20 18 20 18 15 14 13 12 11 10 9 9 10 12 13 12 10 9 9 9 11 12 12 13 13 13 13
14 13 12 14 6 5 10 5 12 7 11 12 12 5 5 8 11 10 9 11 14 19 21 18 19 18 16 15 13 13 12 11 10 11 13 14 12 11 10 11 12 12 13 14 16 15 16 16 16
15 14 13 14 10 4 13 13 11 9 14 7 8 8 8 8 9 8 9 12 3 14 19 18 17 16 16 15 14 13 15 14 12 12 12 12 12 14 14 15 16 15 15 15 16 17 17 18 19
17 16 14 13 3 8 13 20 13 16 13 16 18 17 9 9 9 8 5 4 2 8 14 16 16 16 16 16 14 14 15 14 12 10 11 15 17 17 17 17 17 16 17 17 19 19 19 20 21
17 18 17 9 8 10 21 32 20 18 9 9 19 23 15 9 8 11 10 7 7 10 12 14 16 17 16 15 14 15 16 16 13 14 14 15 16 17 17 18 19 19 19 20 19 20 19 19 20
16 19 21 18 8 6 21 32 19 18 14 16 16 25 26 13 8 13 12 14 12 12 16 16 19 18 20 21 20 18 20 17 17 17 17 16 17 16 16 16 17 19 20 19 18 17 16 17 17
15 16 13 15 4 12 22 33 18 22 18 21 22 34 25 17 12 16 19 19 19 17 19 22 24 22 24 26 21 20 22 21 19 21 19 19 18 17 18 21 21 20 19 18 18 16 17 16 17
13 14 12 9 9 18 24 32 19 19 18 18 23 35 27 14 17 20 21 23 24 22 18 23 28 27 30 35 26 23 24 25 21 24 24 22 21 19 18 18 20 17 17 17 16 15 16 15 16
12 11 15 12 26 29 33 27 17 25 20 17 25 33 32 27 21 22 25 22 22 21 19 21 28 31 33 32 26 27 26 26 27 27 27 24 23 17 17 17 17 16 17 15 14 15 14 16 17
13 14 18 21 16 21 21 21 19 23 18 16 27 31 24 10 17 21 24 18 24 20 19 18 22 31 35 35 34 34 32 23 22 26 28 24 22 18 19 17 16 17 18 14 13 14 15 16 16
12 15 17 18 19 17 20 22 21 21 17 25 34 37 10 20 25 22 24 24 13 22 20 20 22 25 30 32 35 36 34 23 26 26 26 27 25 24 24 20 19 15 14 13 14 16 16 17 17
16 17 18 19 17 18 19 20 23 22 24 31 33 37 39 36 27 27 23 31 28 23 24 24 23 26 28 31 33 34 31 30 32 31 29 26 28 26 25 21 18 18 15 14 15 16 18 18 17
17 19 21 22 22 23 24 22 20 21 24 25 37 28 30 37 33 28 29 30 33 27 25 26 26 26 28 31 33 34 34 36 35 33 32 31 30 29 25 20 17 18 16 17 17 18 18 18 18
17 20 19 19 24 23 27 22 22 22 25 25 33 30 25 29 34 32 32 30 36 31 27 27 28 29 31 32 33 33 34 35 35 33 32 31 29 32 26 22 18 19 18 17 19 18 20 20 19
23 23 24 23 21 24 27 21 21 25 28 28 33 33 29 24 30 35 28 35 29 26 27 29 31 31 31 34 35 36 34 34 34 35 32 31 33 34 29 25 23 20 22 19 19 20 21 23 23
27 19 21 24 17 28 31 28 23 24 21 33 31 35 28 19 37 40 33 35 25 30 31 31 33 35 35 36 36 37 38 36 34 35 35 31 32 33 31 29 27 24 24 23 21 22 23 22 24
31 32 35 29 19 24 30 37 24 24 21 35 43 34 33 32 44 42 38 38 41 40 37 37 37 39 39 39 35 36 36 38 37 35 36 35 34 34 32 31 31 30 28 27 26 25 26 25 25
33 37 38 32 35 35 29 35 32 23 32 43 47 45 36 41 44 42 36 39 41 40 40 35 36 36 34 36 34 34 34 35 35 36 37 38 37 35 35 35 34 33 34 31 29 30 29 28 28
33 38 38 35 32 30 27 39 36 26 42 46 46 37 38 37 44 39 37 40 39 40 39 36 30 31 31 32 35 35 35 35 36 36 38 38 39 38 38 38 40 37 36 37 33 34 33 32 29
35 31 34 34 32 36 22 36 33 26 45 49 41 43 43 44 43 39 38 39 39 39 36 34 33 31 33 34 34 35 33 34 31 36 40 40 38 39 39 41 42 43 41 40 38 35 36 34 33
35 31 32 28 26 30 36 32 30 22 45 52 54 48 46 43 45 43 40 40 40 38 36 35 34 34 34 32 35 32 33 33 32 34 37 43 42 38 40 41 42 43 43 39 39 36 36 35 35
32 28 31 32 31 32 38 29 33 31 38 48 51 55 51 39 41 43 41 40 40 39 38 37 38 37 37 37 35 37 36 35 34 34 39 41 42 40 39 44 44 42 39 38 36 38 36 36 34
31 28 37 35 31 37 30 30 31 32 37 56 54 56 56 43 41 41 43 39 39 41 41 41 42 42 42 42 42 42 43 41 41 41 44 45 44 44 44 51 50 43 39 34 36 37 38 37 35
36 33 40 40 37 31 29 33 46 47 37 47 53 56 51 43 40 43 37 38 41 45 46 45 45 45 45 45 45 47 49 50 50 49 49 49 50 48 54 38 40 48 40 32 29 34 36 37 38
44 41 42 43 31 42 39 40 34 40 46 54 42 53 52 56 45 35 36 40 45 49 49 48 47 45 44 45 47 48 50 51 52 54 51 50 52 53 61 59 55 61 38 35 30 31 32 37 39
39 42 45 43 48 41 20 39 44 42 40 46 52 38 51 62 58 52 58 49 47 47 49 49 50 49 49 48 48 50 51 52 53 53 51 49 48 53 58 59 55 42 61 38 39 28 31 32 33
32 41 50 52 58 61 54 46 42 53 47 40 45 51 58 55 59 67 59 49 48 47 49 48 48 49 52 52 51 53 55 57 57 57 56 52 52 52 57 62 56 54 62 36 31 33 29 31 33
44 44 43 45 52 52 51 54 52 51 53 62 58 42 37 46 62 58 49 43 43 43 45 46 47 49 50 51 51 53 56 58 59 59 59 55 54 54 57 61 59 58 54 61 71 69 38 37 38
Wind_Direction
191 194 186 159 131 109 66 129 272 303 264 211 186 322 311 329 335 316 307 270 240 231 234 222 207 194 196 209 207 206 219 218 230 247 256 258 265 250 250 261 288 298 307 319 322 328 329 330 334
193 193 185 160 149 109 233 125 261 237 175 240 238 271 307 322 313 303 297 281 261 243 226 223 213 196 200 206 213 213 221 230 244 269 283 298 302 286 275 272 292 314 324 329 328 325 324 325 324
194 196 185 162 160 22 326 132 243 316 292 278 258 261 295 307 293 293 290 282 257 242 220 211 209 202 201 211 222 225 228 239 257 272 288 300 305 288 282 293 302 311 320 321 319 319 319 319 321
197 203 194 174 173 226 120 278 221 260 273 272 288 257 292 299 294 295 308 311 245 223 208 203 206 206 210 215 227 238 245 253 266 281 295 305 297 289 293 297 299 309 310 312 314 318 320 321 321
198 204 205 184 175 273 310 249 217 298 278 317 259 281 272 276 318 315 356 6 89 196 201 192 203 215 222 221 233 248 264 267 271 293 304 300 298 297 300 302 306 308 309 312 313 312 312 315 318
197 202 201 185 222 286 268 257 274 258 245 289 283 283 262 264 299 312 340 322 196 211 204 198 204 220 227 235 239 252 261 270 281 296 302 299 299 300 301 303 304 306 309 310 309 310 312 315 319
202 209 194 187 203 253 265 269 249 244 257 257 273 274 248 246 286 288 295 288 256 255 225 224 223 223 233 236 246 260 274 266 276 275 291 286 294 300 305 304 303 305 310 314 314 317 317 319 319
211 217 208 197 209 233 259 266 264 252 233 252 247 255 262 249 283 286 287 293 281 242 255 239 236 241 236 244 252 263 263 263 267 270 291 296 292 298 302 313 310 302 306 311 312 320 321 325 326
221 229 223 217 222 264 284 278 256 250 244 243 264 262 261 235 284 279 279 282 273 265 244 252 247 242 244 242 246 259 256 266 270 281 286 302 297 301 299 298 304 307 305 311 313 315 319 325 321
229 229 217 169 259 232 253 257 240 259 244 256 257 278 283 289 274 280 278 275 269 268 248 242 249 244 245 245 252 246 256 262 272 283 287 297 296 305 297 302 301 305 306 309 313 316 319 326 323
239 236 217 196 236 210 219 252 261 251 250 276 281 283 258 258 263 274 273 260 258 261 255 243 248 251 255 262 263 267 263 265 274 287 291 286 293 298 301 301 300 295 300 305 309 314 319 321 323
247 242 238 246 260 239 249 255 255 248 232 239 252 248 241 252 271 286 286 284 255 263 259 249 253 255 260 265 270 267 268 280 286 292 290 287 290 297 305 297 293 302 301 299 301 305 312 315 322
261 256 254 258 256 257 246 247 248 251 221 223 248 267 184 272 286 282 275 263 285 272 270 258 261 260 262 266 267 271 283 289 287 295 293 289 289 293 300 300 286 272 265 285 294 297 304 313 320
265 265 266 265 264 265 258 251 249 244 244 223 241 251 262 275 273 270 267 271 277 272 273 267 264 264 264 266 268 277 281 283 287 288 286 286 288 291 291 291 284 284 288 288 285 295 305 313 314
266 268 267 269 269 265 264 258 256 258 253 236 256 255 257 268 270 265 260 261 266 272 267 271 271 271 272 273 275 278 281 282 285 287 286 284 287 287 284 280 275 277 277 281 288 297 301 306 310
272 278 279 275 273 267 264 268 260 253 258 256 259 269 258 249 268 271 264 270 272 273 268 267 268 270 275 277 277 278 279 281 283 284 285 288 282 289 284 277 269 271 271 274 284 291 296 300 307
286 284 283 281 275 279 276 268 254 257 254 254 257 264 267 263 264 267 273 270 243 265 264 264 269 270 271 272 276 279 280 280 281 283 282 282 283 286 285 283 273 270 274 277 280 286 291 298 305
281 283 296 292 277 275 274 276 264 251 243 266 250 255 257 247 264 267 261 266 280 269 266 263 266 269 272 272 273 276 280 280 279 281 283 280 280 282 284 282 276 274 274 275 280 286 290 295 300
272 265 256 250 234 245 265 276 260 261 233 232 245 257 256 227 258 262 267 266 268 269 268 264 262 265 266 267 270 272 272 274 279 281 280 279 280 282 283 281 280 280 277 276 279 284 289 291 294
265 266 271 269 252 244 253 262 266 246 239 240 248 256 254 257 259 260 262 264 266 267 267 263 263 264 265 268 269 268 268 270 270 273 275 278 277 278 280 281 280 280 278 275 277 279 283 287 291
271 273 273 268 257 255 264 261 259 245 246 251 256 268 261 257 256 260 258 258 261 263 265 268 268 262 262 264 267 269 271 271 272 270 270 272 275 276 276 277 279 278 278 279 277 280 281 283 286
279 269 277 274 262 255 246 263 263 233 249 259 266 263 263 260 257 252 254 255 255 255 258 259 260 261 263 263 265 267 268 272 275 277 276 275 275 274 274 276 275 277 277 278 278 280 282 284 285
275 273 260 257 254 272 256 241 251 246 252 259 265 267 263 260 259 257 251 251 250 250 254 258 261 265 269 269 270 261 261 263 265 272 277 278 274 277 277 274 274 271 271 271 275 276 278 280 282
277 280 274 265 263 248 264 254 260 248 256 261 266 270 267 264 262 260 258 255 256 254 255 257 261 265 266 267 263 262 262 263 266 268 273 279 279 275 275 274 269 270 272 273 272 273 274 276 278
269 265 272 277 256 258 262 257 263 250 237 257 252 260 267 264 265 264 259 261 262 261 259 259 261 262 262 261 260 259 260 260 262 262 266 274 279 280 272 268 268 266 266 270 275 276 275 274 274
243 235 245 251 240 250 257 253 246 239 236 256 260 258 253 249 254 255 248 256 261 262 262 261 259 260 262 263 261 261 261 261 262 264 267 271 275 277 271 276 260 241 241 246 259 270 274 277 277
265 255 246 251 254 241 232 233 274 263 244 234 235 241 244 249 254 240 249 262 266 267 264 264 263 262 259 258 260 261 261 262 263 265 266 266 270 275 276 277 281 282 266 262 249 261 268 275 278
266 260 258 257 268 272 253 251 250 256 244 259 244 243 241 251 252 252 254 256 264 265 265 265 265 265 265 264 263 262 263 263 263 264 265 266 265 269 272 274 278 278 277 273 242 255 258 265 272
255 260 258 257 258 266 271 263 262 246 253 214 239 249 248 248 243 249 248 250 259 265 267 266 266 265 265 265 265 264 263 262 263 264 264 263 263 265 269 272 275 273 282 227 259 255 250 262 266
269 270 266 261 259 262 259 265 264 263 255 250 256 228 211 233 242 248 256 251 254 261 265 267 268 268 269 269 266 263 260 259 259 262 263 262 261 261 263 267 270 273 275 278 282 262 257 255 267